Location: Mentone
(34.5413°N, 85.5351°W)
Time: 20:32:08
(UTC-05:00)

Cosmos 2150 Rocket - Visible Passes

Search period start: 29 September 2016 00:00
Search period end: 09 October 2016 00:00
Orbit: 750 x 808 km, 74.0° (Epoch: 28 September)

Date Brightness Start Highest point End Pass type
(mag) Time Alt. Az. Time Alt. Az. Time Alt. Az.
29 Sep 4.6 04:15:09 49° SE 04:15:46 52° ESE 04:20:45 10° NNE visible
29 Sep 5.6 05:55:44 11° W 05:58:21 16° WNW 06:01:26 10° NNW visible
30 Sep 5.7 03:42:56 29° E 03:42:56 29° E 03:46:33 10° NE visible
30 Sep 5.0 05:23:29 24° W 05:24:19 25° WNW 05:28:34 10° N visible
01 Oct 6.7 03:10:34 15° ENE 03:10:34 15° ENE 03:11:55 10° NE visible
01 Oct 4.5 04:51:06 39° NW 04:51:06 39° NW 04:55:15 10° N visible
02 Oct 5.0 04:18:37 36° N 04:18:37 36° N 04:21:40 10° NNE visible
03 Oct 6.0 03:46:02 22° NNE 03:46:02 22° NNE 03:47:52 10° NNE visible
03 Oct 6.0 05:26:34 12° NW 05:26:34 12° NW 05:27:33 10° NW visible
04 Oct 6.8 03:13:23 12° NE 03:13:23 12° NE 03:13:50 10° NNE visible
04 Oct 5.9 04:53:54 15° NNW 04:53:54 15° NNW 04:55:12 10° NNW visible
05 Oct 6.2 04:21:11 14° N 04:21:11 14° N 04:22:04 10° N visible
06 Oct 6.6 03:48:24 11° N 03:48:24 11° N 03:48:37 10° N visible
